Theta_e
295 294 295 295 296 296 294 294 293 293 293 292 292 291 291 291 290 290 290 290 291 290 290 290 290 290 291 291 291 291 291 290 290 290 291 290 290 290 289 289 290 288
293 293 294 295 294 294 294 295 294 293 293 292 292 291 291 289 289 290 289 289 289 289 289 290 290 290 290 290 290 290 289 289 288 290 290 289 289 289 289 288 288 287
293 292 293 293 293 292 292 293 293 293 292 292 292 291 290 289 289 289 289 289 289 289 289 289 289 289 290 290 290 290 289 288 287 288 289 288 288 288 287 287 287 287
292 292 292 293 293 292 292 291 291 291 291 290 290 290 289 289 289 289 289 288 289 288 288 289 289 289 289 289 290 289 289 288 288 288 287 287 287 287 286 286 285 285
292 291 291 291 292 291 291 290 290 290 290 290 289 289 288 288 288 288 288 288 288 288 288 288 288 288 288 288 289 288 287 286 286 287 286 285 285 285 284 284 283 283
291 291 291 291 290 290 289 289 289 289 289 288 288 288 288 288 288 287 287 287 287 287 287 287 287 287 287 287 287 287 286 285 285 285 285 284 284 284 283 283 283 282
290 290 289 290 289 289 289 289 289 288 288 288 288 287 287 287 287 287 287 287 287 287 287 286 286 285 286 286 286 285 285 285 284 284 284 284 283 282 282 283 282 282
290 289 289 288 288 288 288 288 288 288 288 288 287 287 287 287 287 287 287 287 287 286 286 286 286 285 285 286 285 284 284 284 283 284 284 283 283 282 282 282 282 281
288 288 288 287 287 287 287 287 287 287 287 287 287 286 286 287 287 286 286 286 286 286 286 285 285 285 285 285 284 284 283 283 283 283 283 282 282 282 282 282 281 281
287 287 287 287 286 287 287 287 287 286 286 286 286 286 285 286 286 286 285 285 285 285 285 285 284 284 284 284 284 284 283 283 283 283 283 283 283 282 282 281 281 281
287 287 286 286 286 286 286 286 286 286 285 285 285 285 285 285 285 285 285 285 284 284 284 284 284 284 284 284 284 284 284 283 283 283 283 283 283 282 282 281 281 281
286 286 285 285 286 286 286 285 285 285 285 285 285 285 284 284 284 284 284 284 284 284 283 283 283 283 283 283 283 283 283 283 283 282 282 282 282 282 281 281 281 281
286 285 285 286 286 286 285 285 285 284 284 284 284 284 284 283 284 284 284 284 284 283 282 282 282 282 283 283 282 282 282 282 282 282 282 282 282 281 280 280 280 281
286 286 286 286 286 285 285 284 284 284 284 284 284 284 283 283 283 283 283 283 283 283 282 282 282 281 282 282 282 282 282 282 282 282 281 281 280 280 280 280 280 280
285 285 285 285 285 284 284 284 284 284 284 284 284 284 284 284 284 283 283 282 282 280 280 280 280 280 281 281 282 282 282 282 282 281 281 279 279 279 279 279 279 280
285 284 284 284 284 283 284 284 284 284 284 283 283 283 283 283 283 283 282 280 279 279 279 279 280 281 282 283 283 282 282 281 281 280 280 280 279 279 279 279 279 279
285 284 284 284 284 283 283 283 283 284 283 283 283 283 282 282 282 281 280 280 279 279 278 279 279 280 282 284 284 283 281 280 280 280 280 280 280 279 279 279 278 279
284 284 284 284 284 283 283 283 283 283 283 282 282 281 281 282 281 281 280 279 279 279 279 279 279 281 283 283 284 284 282 281 281 281 280 280 280 280 279 279 279 279
285 285 284 284 284 284 284 284 283 283 282 282 281 281 281 280 281 280 279 279 279 279 279 279 279 282 283 284 284 285 284 282 281 281 281 280 280 280 280 280 280 279
286 285 285 285 285 284 283 283 282 282 282 282 282 281 280 280 280 279 279 278 278 279 279 279 279 281 283 284 284 284 285 283 281 280 281 281 280 280 280 280 280 279
286 286 285 285 284 284 283 282 282 282 282 281 281 281 281 280 279 279 279 279 279 279 279 279 279 282 283 284 284 285 285 284 280 280 280 281 281 281 280 280 280 280
286 285 285 285 284 283 283 282 282 282 282 282 281 282 281 281 280 279 279 279 279 279 279 279 279 282 282 283 284 285 286 284 282 280 280 280 280 280 280 280 280 279
286 286 285 284 284 283 282 282 282 282 282 282 281 281 280 280 279 279 280 279 279 278 278 278 279 281 282 283 284 285 285 284 283 280 280 279 279 280 279 279 279 279
286 286 285 284 283 282 282 283 282 282 282 281 280 279 279 279 279 279 279 279 279 278 279 278 279 279 281 282 284 285 285 284 284 281 280 279 279 279 279 279 279 278
286 285 285 284 283 283 282 282 282 281 281 281 280 280 279 279 279 279 279 279 279 279 279 279 279 279 281 282 283 284 285 284 284 282 280 279 279 278 278 278 278 278
286 285 285 284 283 283 283 283 283 281 281 280 279 280 279 279 278 279 278 278 278 278 278 278 278 278 279 281 282 284 285 284 284 282 280 280 279 279 278 278 278 278
Wind_Speed
7 7 7 7 7 7 8 8 8 8 7 7 7 7 7 6 7 6 6 5 5 6 6 6 6 6 6 6 6 6 6 6 5 5 6 6 6 6 5 5 5 5
8 7 6 5 5 5 6 6 8 8 8 7 6 7 6 7 6 6 6 7 6 6 7 7 6 7 7 7 7 7 6 6 6 3 6 7 6 6 6 6 6 5
8 7 7 8 7 8 7 5 5 5 6 6 6 6 6 6 7 6 6 7 7 7 7 6 7 7 7 7 7 7 7 7 8 6 6 6 5 6 6 6 5 5
9 8 7 7 7 8 7 7 5 4 4 5 6 6 6 6 7 8 7 8 7 7 7 7 7 7 7 7 7 6 7 7 6 7 6 5 5 6 6 5 5 4
9 8 7 6 5 6 6 7 7 6 6 5 5 7 7 8 8 8 8 7 7 8 7 7 7 7 7 7 7 7 6 7 6 6 7 7 5 6 5 5 6 6
7 7 7 7 7 7 7 7 7 7 8 7 8 7 7 8 8 9 9 9 7 8 8 8 8 7 7 7 7 6 7 7 6 7 7 7 6 5 4 5 6 6
8 7 8 6 7 7 7 7 7 7 7 8 8 7 8 8 8 9 9 9 9 8 9 8 8 8 6 7 6 7 6 7 8 7 8 7 7 7 5 6 6 6
9 8 7 7 8 8 7 7 7 7 8 7 9 8 8 8 9 8 7 8 8 8 8 8 7 7 7 6 7 8 7 5 7 8 8 8 7 8 7 5 6 6
8 8 8 8 9 7 8 7 7 7 7 8 7 7 7 7 8 8 8 8 7 7 8 7 8 7 7 7 7 9 9 8 7 8 9 9 8 8 8 7 7 6
9 8 10 9 9 8 9 8 7 7 6 7 6 6 7 6 6 7 8 8 8 8 8 8 9 8 7 7 8 8 9 9 8 8 7 8 8 8 8 8 8 7
11 10 10 10 10 8 10 9 9 8 7 7 7 7 6 7 6 6 8 8 8 10 9 8 8 8 8 8 7 7 8 8 8 8 7 7 8 8 9 8 9 8
11 11 11 12 11 10 11 10 9 9 9 8 8 9 7 7 8 7 7 8 7 7 7 7 7 7 7 8 8 7 7 6 7 7 7 7 7 7 8 7 8 8
11 11 11 11 11 10 10 10 10 10 10 10 9 9 9 9 8 8 7 7 7 7 7 7 7 7 7 7 7 7 7 8 7 7 7 6 6 7 6 7 7 7
11 11 11 11 10 10 10 10 10 10 10 9 10 10 10 10 10 10 8 7 7 7 6 6 6 6 6 7 7 8 8 7 7 7 8 6 6 6 6 7 7 7
9 9 9 9 9 10 10 11 10 10 10 10 10 9 8 9 9 9 9 9 7 5 5 4 5 6 6 8 8 8 8 8 8 8 7 7 7 7 6 6 7 7
10 8 9 9 10 10 10 11 10 10 10 10 10 10 9 9 8 8 8 7 7 7 6 6 7 6 8 11 9 8 9 6 6 7 7 7 7 7 7 7 8 6
10 9 10 11 10 10 9 10 11 10 10 9 9 9 10 9 8 9 8 8 8 8 8 7 6 6 12 14 14 11 8 7 8 8 8 8 8 8 8 8 7 7
10 10 11 11 11 11 10 9 8 8 9 8 7 7 7 8 9 9 9 8 7 8 8 8 7 9 14 15 15 14 10 8 7 7 7 8 7 8 7 7 8 8
11 11 12 10 11 8 8 7 6 6 6 7 7 7 7 9 10 10 9 8 9 9 9 7 6 10 15 16 16 16 16 11 6 7 6 7 8 8 9 8 8 8
12 11 10 10 8 8 8 8 8 9 8 7 8 7 9 8 8 9 9 11 10 9 8 7 7 9 16 16 16 17 17 14 6 7 7 8 9 9 8 9 9 8
11 11 10 9 8 9 9 9 9 7 8 7 8 9 10 9 10 10 10 9 11 7 6 7 8 12 16 16 16 17 17 14 7 7 7 8 8 9 9 9 9 8
12 10 10 9 10 9 9 9 9 9 10 8 7 6 6 4 7 7 9 9 8 8 8 8 5 13 15 15 16 17 18 10 8 7 7 8 8 9 9 8 8 8
13 12 10 10 10 10 11 10 10 10 8 7 8 8 8 9 10 9 7 9 10 10 7 7 5 11 15 16 17 18 15 9 7 7 7 7 9 7 7 7 8 9
12 10 13 12 13 15 14 9 7 5 7 8 9 10 9 10 8 8 8 9 10 10 8 8 6 10 16 16 17 18 15 9 7 7 7 7 6 7 6 7 9 11
10 13 10 13 14 13 12 12 12 10 7 6 7 8 9 6 7 4 5 4 7 8 8 8 5 8 15 16 17 18 15 9 7 7 7 8 6 6 7 8 8 9
10 13 13 13 14 12 11 10 6 7 7 8 8 6 5 6 7 5 9 6 6 7 6 7 6 5 9 17 17 18 19 10 8 8 9 7 7 7 7 7 8 8
Wind_Direction
178 182 185 182 177 172 171 168 170 167 171 166 168 162 163 144 146 154 140 134 132 129 132 134 133 129 126 129 127 124 124 122 119 117 114 113 113 113 109 105 94 98
184 187 185 176 172 168 177 176 169 170 169 170 163 149 136 135 147 143 142 137 133 132 133 135 137 135 137 137 137 130 126 124 113 103 118 115 118 111 104 103 97 93
180 185 186 182 179 177 177 171 168 169 165 162 136 137 132 139 143 144 142 143 139 137 139 137 137 139 139 138 139 131 128 127 125 128 121 119 121 117 111 107 98 97
181 185 186 186 184 174 169 166 169 161 149 146 155 139 136 140 146 144 141 147 141 142 140 141 140 140 140 143 138 125 125 123 125 128 119 114 111 115 116 112 117 117
179 180 184 183 178 167 161 166 169 169 162 152 133 142 148 150 150 149 150 151 146 144 144 144 142 144 148 148 140 128 128 123 129 134 131 127 124 123 124 133 140 141
178 180 178 176 174 169 169 175 171 165 159 155 160 159 158 155 156 156 156 153 153 149 148 148 149 151 158 147 138 132 133 134 140 140 135 136 136 130 134 149 150 151
175 173 174 172 167 172 175 173 165 164 169 163 154 169 161 164 161 159 158 157 154 155 155 155 154 155 154 146 135 134 133 134 143 148 145 142 141 143 148 155 160 155
174 173 174 171 170 173 180 175 166 171 168 159 169 167 169 168 163 157 159 157 153 154 154 152 152 151 153 151 144 140 138 140 153 155 153 147 149 156 162 165 164 161
164 169 168 170 173 177 182 174 172 173 167 170 172 165 171 172 165 160 157 155 151 152 153 154 158 157 162 157 151 152 151 157 162 164 161 158 163 166 168 166 169 170
170 168 170 173 178 181 178 172 169 170 162 170 170 162 170 167 156 156 154 157 158 160 164 164 165 166 163 163 157 158 158 160 166 169 167 167 167 167 168 172 177 174
174 170 172 176 180 178 178 172 171 165 162 172 167 165 172 163 159 164 166 167 169 170 168 170 171 166 166 165 162 161 163 161 167 170 170 170 173 173 174 177 182 185
174 173 178 179 180 179 177 173 171 169 167 171 170 169 170 172 171 174 176 174 170 168 167 167 167 171 171 166 163 162 164 165 167 171 174 174 177 175 177 183 184 188
175 175 175 178 180 178 173 172 173 171 171 173 171 175 175 175 177 175 177 173 168 162 169 169 168 174 171 167 166 169 170 171 174 176 176 179 180 175 177 186 193 195
175 174 177 178 177 174 172 173 173 172 174 171 170 178 180 180 177 178 176 174 171 170 166 160 168 172 175 170 173 177 176 178 178 178 180 182 176 176 185 195 198 203
164 168 172 172 170 172 173 175 176 174 172 172 174 178 178 180 177 176 170 175 165 156 149 155 174 186 184 180 176 179 182 181 184 183 180 177 181 186 190 196 204 208
167 163 169 168 171 176 178 175 175 173 172 174 176 178 172 173 172 173 173 163 151 165 168 176 194 199 197 188 181 173 180 177 174 185 187 186 185 189 198 200 204 205
171 172 170 175 178 176 174 172 173 172 174 172 169 170 171 170 171 173 172 172 175 170 177 187 198 202 191 189 187 175 167 172 181 187 190 193 194 194 194 192 199 207
171 169 176 182 177 179 172 171 168 168 170 167 159 159 165 163 178 182 177 175 172 184 192 196 200 195 190 193 195 189 178 179 185 186 189 198 195 197 200 195 198 202
171 171 179 178 179 173 168 162 161 158 157 156 165 163 154 175 186 179 180 176 181 189 197 194 200 178 193 195 197 197 194 191 192 192 192 199 199 202 203 199 194 198
174 174 175 178 170 163 166 167 171 181 175 171 167 159 176 181 180 176 179 190 194 193 192 192 201 181 193 195 198 200 200 195 201 193 203 205 205 204 203 202 199 195
170 174 173 168 161 167 169 175 176 168 166 172 173 178 180 181 185 188 196 196 199 195 192 200 210 190 195 197 199 202 202 197 201 202 209 214 213 212 210 205 205 202
169 172 170 169 168 169 170 177 178 174 173 171 170 178 185 170 192 193 193 194 193 195 199 204 185 183 195 198 202 203 201 200 202 202 211 216 217 215 212 211 209 209
172 168 164 167 164 163 176 178 170 178 171 163 168 177 178 185 192 191 183 187 194 198 197 202 178 188 198 201 204 204 200 207 197 198 214 218 222 213 211 215 214 211
170 164 173 174 172 183 185 180 165 160 166 168 175 181 186 193 187 190 194 195 193 199 194 199 201 190 198 204 206 204 203 205 207 202 213 216 222 216 216 223 221 209
161 173 167 174 181 185 183 178 180 180 163 154 181 185 190 173 177 162 160 173 190 198 193 199 193 185 198 206 207 207 205 211 211 206 215 220 214 223 221 227 230 212
169 176 177 178 182 178 177 178 146 147 162 169 180 176 155 154 175 176 170 185 184 194 190 197 190 186 195 207 210 211 210 210 216 208 220 210 211 223 223 224 222 222